BEIDOU-3 M23

Last updated on Mon Sep 21 2026 00:02:49 GMT+0000 (Coordinated Universal Time)

1 44543U 19061B 26263.11035623 -.00000028 00000+0 00000+0 0 9996 2 44543 54.3919 179.4968 0006091 4.2991 150.6914 1.86227918 47560
UTC large
Height (km)
Speed (km/s)
/
Latitude / Longitude
Inclination (degrees)
Orbital Period (minutes)
Azimuth
Elevation
Range (km)
Doppler Factor

Next 0 passes for location: London (51.5072 / 0.1276)

No passes found over London.
BEIDOU-3 M23